星链-34012 (STARLINK-34012)

导读 | 豆包AI

STARLINK-34012是美国SpaceX公司星链星座的一员,于2025年5月13日发射升空。作为低轨宽带通信卫星,它承担着全球互联网覆盖任务,依托星链星座的规模化部署,可为偏远地区提供网络接入,也支持多样化商用与特殊场景服务。该卫星采用霍尔推进技术,具备自主避撞能力,服役末期将主动离轨坠入大气层焚毁,设计寿命约5-7年,是星链全球组网进程中的一环。

基本信息
目录编号:
63926
目录名称:
STARLINK-34012
国际标识:
2025-098A
轨道中心:
EARTH
卫星名称:
星链-34012
卫星全名:
星链-34012 (STARLINK-34012)
卫星状态:
在轨 (已飞行351 天)
发射日期:
2025-05-13 UTC
国别 :
美国 (US)
星等 :
--
轨道信息
数据来源 国际轨道数据 AOE轨道数据
星历时间 2026-04-29T14:07:30+0800
12小时前
查看轨道信息
2026-04-29T08:00:00+0800
19小时前
查看轨道信息
半长轴 6950.184km 6950.205km
偏心率 0.0003797 0.0003123
轨道倾角 70.001° 69.998°
近地点辐角 268.939° 259.565°
升交点赤经 147.089° 147.731°
平近点角 91.133° 164.322°
近地点 569.408km 569.897km
远地点 574.686km 574.239km
周期 96.107分钟 96.107分钟
每日圈数 14.983331 14.983262
详细信息
固有亮度:
5
最大亮度:
2.5
卫星平台:
Starlink V1.0
覆盖范围:
全球
运营商:
太空探索技术公司
运营商所在国:
美国
制造商(研发单位):
太空探索技术公司
制造商所在国:
美国
使用方式:
暂无
卫星简介
Starlink 计划是 SpaceX 推出的全球卫星互联网项目,通过发射低轨道卫星,为全球尤其是偏远地区提供高速、低延迟的互联网服务。自 2019 年起,Starlink 已部署数千颗卫星,旨在缩小全球数字鸿沟,推动互联网普及。该项目还为军事、航空等行业提供通信支持,带来广泛经济效益。
2D轨道图
3D轨道图
轨道高度分析图
轨道倾角分析图
轨道综合分析图
查看轨道综合分析图